This is the latest recevied weather packets stored in our database for station/object DO1TOB-60. If no packets are shown the sender has not sent any weather packets the latest 1 day(s).
| Time | Temp. | Humidity | Pressure | Rain* | Wind** | Luminosity | Snow |
|---|---|---|---|---|---|---|---|
| 1777980508 | 16.11° C | 83% | 1009.4 hPa | 0 mm | 0.45 m/s, 327° | - | - |
| 1777980386 | 16.11° C | 82% | 1009.4 hPa | 0 mm | 1.34 m/s, 327° | - | - |
| 1777980327 | 16.11° C | 82% | 1009.4 hPa | 0 mm | 1.34 m/s, 337° | - | - |
| 1777980207 | 16.11° C | 82% | 1009.4 hPa | 0 mm | 1.34 m/s, 348° | - | - |
| 1777980026 | 16.11° C | 82% | 1009.4 hPa | 0 mm | 0.45 m/s, 355° | - | - |
| 1777979667 | 16.11° C | 82% | 1009.5 hPa | 0 mm | 0.89 m/s, 342° | - | - |
| 1777979427 | 16.11° C | 82% | 1009.6 hPa | 0 mm | 1.34 m/s, 343° | - | - |
| 1777979187 | 16.11° C | 82% | 1009.6 hPa | 0 mm | 2.24 m/s, 345° | - | - |
| 1777979007 | 16.11° C | 82% | 1009.6 hPa | 0 mm | 2.68 m/s, 333° | - | - |
| 1777978887 | 16.11° C | 82% | 1009.6 hPa | 0 mm | 1.34 m/s, 339° | - | - |
| 1777978767 | 16.11° C | 82% | 1009.6 hPa | 0 mm | 0.45 m/s, 338° | - | - |
| 1777978647 | 16.11° C | 82% | 1009.6 hPa | 0 mm | 0.89 m/s, 338° | - | - |
| 1777978587 | 16.11° C | 82% | 1009.6 hPa | 0 mm | 0.89 m/s, 346° | - | - |
| 1777978467 | 16.11° C | 81% | 1009.7 hPa | 0 mm | 0.45 m/s, 330° | - | - |
| 1777978406 | 16.11° C | 81% | 1009.7 hPa | 0 mm | 1.79 m/s, 329° | - | - |
| 1777978288 | 16.11° C | 81% | 1009.7 hPa | 0 mm | 1.34 m/s, 340° | - | - |
| 1777978227 | 16.11° C | 81% | 1009.6 hPa | 0 mm | 1.34 m/s, 329° | - | - |
| 1777978167 | 16.11° C | 81% | 1009.7 hPa | 0 mm | 1.79 m/s, 325° | - | - |
| 1777978107 | 16.11° C | 81% | 1009.7 hPa | 0 mm | 1.79 m/s, 317° | - | - |
| 1777978047 | 16.11° C | 81% | 1009.7 hPa | 0 mm | 0.89 m/s, 334° | - | - |
| 1777977807 | 16.67° C | 81% | 1009.8 hPa | 0 mm | 1.34 m/s, 336° | - | - |
| 1777977747 | 16.67° C | 80% | 1009.8 hPa | 0 mm | 1.34 m/s, 336° | - | - |
| 1777977687 | 16.67° C | 80% | 1009.8 hPa | 0 mm | 0.45 m/s, 338° | - | - |
| 1777977567 | 16.67° C | 79% | 1009.8 hPa | 0 mm | 1.34 m/s, 340° | - | - |
| 1777977507 | 16.67° C | 79% | 1009.9 hPa | 0 mm | 0.45 m/s, 338° | - | - |
* Rain latest hour (hover to see other rain measurements)
** Current wind speed in m/s (hover to see current wind gust speed)